This is the latest recevied weather packets stored in our database for station/object KM4KBD. If no packets are shown the sender has not sent any weather packets the latest 10 day(s).
| Time | Temp. | Humidity | Pressure | Rain* | Wind** | Luminosity | Snow |
|---|---|---|---|---|---|---|---|
| 1777793483 | 2.22° C | 89% | 1025.3 hPa | 0 mm | - | 0 W/m² | - |
| 1777793180 | 2.22° C | 89% | 1025.6 hPa | 0 mm | - | 0 W/m² | - |
| 1777792877 | 2.22° C | 89% | 1025.5 hPa | 0 mm | - | 0 W/m² | - |
| 1777792574 | 2.22° C | 89% | 1025.5 hPa | 0 mm | - | 0 W/m² | - |
| 1777792271 | 2.22° C | 90% | 1025.4 hPa | 0 mm | - | 0 W/m² | - |
| 1777791968 | 1.67° C | 91% | 1025.4 hPa | 0 mm | - | 0 W/m² | - |
| 1777791666 | 1.67° C | 90% | 1025.4 hPa | 0 mm | - | 0 W/m² | - |
| 1777791363 | 1.67° C | 89% | 1025.2 hPa | 0 mm | - | 0 W/m² | - |
| 1777791060 | 2.22° C | 89% | 1025.3 hPa | 0 mm | - | 0 W/m² | - |
| 1777790758 | 2.78° C | 88% | 1025.4 hPa | 0 mm | - | 0 W/m² | - |
| 1777790454 | 2.78° C | 88% | 1025.5 hPa | 0 mm | - | 0 W/m² | - |
| 1777790152 | 2.78° C | 89% | 1025.4 hPa | 0 mm | - | 0 W/m² | - |
| 1777789850 | 2.78° C | 90% | 1025.2 hPa | 0 mm | - | 0 W/m² | - |
| 1777789548 | 2.22° C | 89% | 1025.3 hPa | 0 mm | - | 0 W/m² | - |
| 1777789247 | 2.78° C | 88% | 1025.1 hPa | 0 mm | - | 0 W/m² | - |
| 1777788943 | 2.78° C | 87% | 1025.3 hPa | 0 mm | - | 0 W/m² | - |
| 1777788639 | 2.22° C | 87% | 1025.3 hPa | 0 mm | - | 0 W/m² | - |
| 1777788339 | 2.78° C | 85% | 1025.3 hPa | 0 mm | - | 0 W/m² | - |
| 1777788035 | 2.78° C | 84% | 1025.5 hPa | 0 mm | - | 0 W/m² | - |
| 1777787730 | 2.78° C | 84% | 1025.5 hPa | 0 mm | - | 0 W/m² | - |
| 1777787426 | 2.78° C | 84% | 1025.4 hPa | 0 mm | - | 0 W/m² | - |
| 1777787122 | 3.33° C | 84% | 1025.4 hPa | 0 mm | - | 0 W/m² | - |
| 1777786820 | 3.33° C | 85% | 1025.5 hPa | 0 mm | - | 0 W/m² | - |
| 1777786517 | 3.33° C | 84% | 1025.4 hPa | 0 mm | - | 0 W/m² | - |
| 1777786215 | 3.89° C | 82% | 1025.6 hPa | 0 mm | - | 0 W/m² | - |
* Rain latest hour (hover to see other rain measurements)
** Current wind speed in m/s (hover to see current wind gust speed)